Probability
0 0 0 1 2 3 3 2 1 0 0 0 0 0 0 0 0 0 0 0 0 0 0 0 0 0 0 0 0 0 0 0 0 0 0 0 0 0 0 0 0 0 0
0 0 0 1 2 3 3 2 1 0 0 0 0 0 0 0 0 0 0 0 0 0 0 0 0 0 0 0 0 0 0 0 0 0 0 0 0 0 0 0 0 0 0
0 0 0 0 1 3 3 2 1 0 0 0 0 0 0 0 0 0 0 0 0 0 0 0 0 0 0 0 0 0 0 0 0 0 0 0 0 0 0 0 0 0 0
0 0 0 0 1 2 3 2 1 0 0 0 0 0 0 0 0 0 0 0 0 0 0 0 0 0 0 0 0 0 0 0 0 0 0 0 0 0 0 0 0 0 0
0 0 0 0 1 2 3 2 1 0 0 0 0 0 0 0 0 0 0 0 0 0 0 0 0 0 0 0 0 0 0 0 0 0 0 0 0 0 0 0 0 0 0
0 0 0 0 1 2 2 2 1 0 0 0 0 0 0 0 0 0 0 0 0 0 0 0 0 0 0 0 0 0 0 0 0 0 0 0 0 0 0 0 0 0 0
0 0 0 0 0 1 1 1 0 0 0 0 0 0 0 0 0 0 0 0 0 0 0 0 0 0 0 0 0 0 0 0 0 0 0 0 0 0 0 0 0 0 0
0 0 0 0 0 0 0 0 0 0 1 0 0 0 0 0 0 0 0 0 0 0 0 0 0 0 0 0 0 0 0 0 0 0 0 0 0 0 0 0 0 0 0
0 0 0 0 0 0 0 0 0 0 0 0 0 0 0 0 0 0 0 0 0 0 0 0 0 0 0 0 0 0 0 0 0 0 0 0 0 0 0 0 0 0 0
0 0 0 0 0 0 0 0 0 0 0 0 0 0 0 0 0 0 0 0 0 0 0 0 0 0 0 0 0 0 0 0 0 0 0 0 0 0 0 0 0 0 0
0 0 0 0 0 0 0 0 0 0 0 0 0 0 0 0 0 0 0 0 0 0 0 0 0 0 0 0 0 0 0 0 0 0 0 0 0 0 0 0 0 0 0
0 0 0 0 0 0 0 0 0 0 0 0 0 0 0 0 0 0 0 0 0 0 0 0 0 0 0 0 0 0 0 0 0 0 0 0 0 0 0 0 0 0 0
0 0 0 0 0 0 0 0 0 0 0 0 0 0 0 0 0 0 0 0 0 0 0 0 0 0 0 0 0 0 0 0 0 0 0 0 0 0 0 0 0 0 0
0 0 0 0 0 0 0 0 0 0 0 0 0 0 0 0 0 0 0 0 0 0 0 0 0 0 0 0 0 0 0 0 0 0 0 0 0 0 0 0 0 0 0
0 0 0 0 0 0 0 0 0 0 0 0 0 0 0 0 0 0 0 0 0 0 0 0 0 0 0 0 0 0 0 0 0 0 0 0 0 0 0 0 0 0 0
0 0 0 0 0 0 0 0 0 0 0 0 0 0 0 0 0 0 0 0 0 0 0 0 0 0 0 0 0 0 0 0 0 0 0 0 0 0 0 0 0 0 0
0 0 0 0 0 0 0 0 0 0 0 0 0 0 0 0 0 0 0 0 0 0 0 0 0 0 0 0 0 0 0 0 0 0 0 0 0 0 0 0 0 0 0
0 0 0 0 0 0 0 0 0 0 0 0 0 0 0 0 0 0 0 0 0 0 0 0 0 0 0 0 0 0 0 0 0 0 0 0 0 0 0 0 0 0 0
0 0 0 0 0 0 0 0 0 0 0 0 0 0 0 0 0 0 0 0 0 0 0 0 0 0 0 0 0 0 0 0 0 0 0 0 0 0 0 0 0 0 0
0 0 0 0 0 0 0 0 0 0 0 0 0 0 0 0 0 0 0 0 0 0 0 0 0 0 0 0 0 0 0 0 0 0 0 0 0 0 0 0 0 0 0
0 0 0 0 0 0 0 0 0 0 0 0 0 0 0 0 0 0 0 0 0 0 0 0 0 0 0 0 0 0 0 0 0 0 0 0 0 0 0 0 0 0 0
0 0 0 0 0 0 0 0 0 0 0 0 0 0 0 0 0 0 0 0 0 0 0 0 0 0 0 0 0 0 0 0 0 0 0 0 0 0 0 0 0 0 0
0 0 0 0 0 0 0 0 0 0 0 0 0 0 0 0 0 0 0 0 0 0 0 0 0 0 0 0 0 0 0 0 0 0 0 0 0 0 0 0 0 0 0
0 0 0 0 0 0 0 0 0 0 0 0 0 0 0 0 0 0 0 0 0 0 0 0 0 0 0 0 0 0 0 0 0 0 0 0 0 0 0 0 0 0 0
0 0 0 0 0 0 0 0 0 0 0 0 0 0 0 0 0 0 0 0 0 0 0 0 0 0 0 0 0 0 0 0 0 0 0 0 0 0 0 0 0 0 0
0 0 0 0 0 0 0 0 0 0 0 0 0 0 0 0 0 0 0 0 0 0 0 0 0 0 0 0 0 0 0 0 0 0 0 0 0 0 0 0 0 0 0
Wind_Speed
2 2 2 2 2 2 2 2 2 3 2 2 3 3 3 4 5 5 4 9 9 9 9 8 9 9 10 11 11 11 11 11 11 11 11 11 11 11 11 11 10 9 9
3 2 3 2 2 2 2 2 3 3 2 2 3 3 3 4 5 6 5 6 9 9 8 8 8 9 9 10 10 10 10 10 10 10 10 10 10 10 10 10 10 10 10
3 3 3 2 2 1 2 2 3 3 2 2 3 3 3 4 4 5 5 3 4 8 8 8 8 9 9 9 9 9 9 9 9 9 9 9 8 8 9 9 9 9 9
3 3 3 2 2 1 2 2 2 3 2 2 2 2 3 3 4 5 4 4 3 3 6 9 8 8 8 8 8 8 8 8 8 8 8 8 8 8 8 8 8 8 8
3 3 3 2 2 2 1 2 2 2 3 2 2 2 3 3 3 4 5 4 4 3 3 5 7 8 7 7 7 6 7 7 7 7 7 7 7 8 8 8 8 8 8
3 3 3 4 3 2 1 2 3 3 3 2 3 3 2 2 2 3 3 3 3 3 3 3 3 4 6 6 5 6 6 6 6 6 6 7 7 7 7 8 8 8 8
3 3 3 3 3 2 2 3 3 3 2 2 3 2 1 2 2 2 2 2 3 3 2 2 2 2 2 4 5 5 5 6 6 6 6 6 7 7 8 8 8 9 9
3 3 4 3 3 3 3 3 3 3 2 2 2 3 2 0 0 1 2 2 2 2 2 2 2 2 2 2 3 5 5 5 5 6 6 6 7 8 8 8 9 9 9
3 3 4 4 4 4 3 3 2 3 3 1 1 3 3 3 1 0 1 2 2 2 1 2 2 2 3 2 2 4 5 5 5 6 6 7 7 8 8 9 9 10 10
3 3 4 4 4 3 4 3 2 2 4 3 1 1 2 3 3 1 0 1 2 2 2 2 2 2 2 2 3 3 4 5 5 6 7 7 8 8 9 10 10 11 11
3 3 3 3 3 3 4 4 2 2 2 3 2 1 1 1 2 3 2 1 0 1 1 2 2 2 2 2 2 2 3 5 6 6 7 8 8 9 10 10 11 11 12
2 3 4 3 3 3 4 4 3 3 2 3 2 2 2 2 1 2 2 1 1 1 1 1 2 2 2 2 2 2 2 4 6 7 8 8 9 10 10 11 11 12 12
2 4 4 4 3 4 4 4 3 3 3 3 2 2 2 1 1 2 2 1 0 1 1 1 1 2 2 2 1 0 2 5 6 7 8 9 9 9 10 11 12 12 13
4 4 4 4 4 4 4 4 3 3 3 3 3 3 2 1 1 2 2 2 1 1 1 2 1 2 2 2 2 2 2 6 7 8 9 9 9 9 10 11 12 13 13
4 5 5 5 5 5 5 5 4 4 4 3 3 3 2 2 2 1 1 2 3 2 2 2 1 1 1 1 2 2 2 6 8 9 9 10 9 10 11 12 12 13 13
5 6 6 5 5 5 5 5 4 4 4 3 3 3 2 2 2 2 2 1 2 3 2 2 1 1 1 1 3 2 3 7 8 9 10 10 10 11 12 12 13 13 14
5 5 5 5 5 5 5 5 4 5 5 4 4 4 4 3 2 2 2 2 2 2 3 2 1 1 1 2 2 2 3 3 4 9 10 11 11 12 13 13 13 14 14
5 5 5 5 5 5 5 6 5 5 5 5 5 4 4 3 3 3 2 3 2 3 3 3 2 1 2 2 2 3 3 3 3 8 10 12 12 13 13 13 14 14 14
4 5 5 5 5 5 5 5 5 5 5 5 5 5 5 4 4 3 3 3 2 2 2 3 3 2 2 2 2 3 4 3 4 6 9 11 12 13 13 14 14 15 14
4 4 5 5 5 5 5 5 5 5 5 4 5 5 5 5 5 4 4 3 3 2 2 2 3 3 2 2 2 2 3 3 4 4 6 8 10 12 13 15 15 14 14
4 4 4 4 4 4 5 5 5 5 5 4 4 4 4 5 6 5 4 4 3 3 2 3 3 3 3 2 3 3 3 3 4 3 3 4 5 4 6 10 12 13 14
3 3 4 4 5 4 7 8 6 5 4 5 4 4 4 5 6 7 7 7 6 5 5 4 4 5 5 4 3 3 3 3 4 2 2 5 3 4 5 4 11 14 14
3 3 4 4 4 5 8 8 8 5 4 4 4 4 3 4 6 4 5 6 7 9 9 6 6 6 5 5 3 3 4 5 6 4 3 6 3 5 5 7 13 14 14
2 3 3 4 4 5 8 8 8 4 3 4 5 5 5 4 5 5 5 4 5 5 6 5 5 6 5 4 4 5 5 5 5 3 2 5 4 5 6 4 12 15 14
2 2 3 3 3 4 7 8 7 3 3 4 4 5 5 5 7 8 6 5 5 5 7 8 8 7 8 8 6 3 3 4 6 4 2 3 4 4 5 5 7 12 13
2 1 2 2 3 3 6 8 8 3 4 4 4 4 7 8 9 9 6 5 6 5 4 4 5 7 6 6 8 5 4 4 5 5 3 2 3 3 5 4 3 3 5
Wind_Direction
139 132 129 143 142 140 150 142 133 129 122 116 116 111 101 91 95 96 82 68 69 73 78 82 86 86 83 80 76 73 70 67 64 61 59 56 53 49 44 41 38 34 33
133 127 114 122 125 135 141 136 126 119 118 111 109 102 94 88 93 102 106 79 69 71 74 79 83 85 84 80 75 72 69 66 62 60 57 53 49 45 41 37 36 33 29
134 128 119 119 119 120 121 112 108 101 109 106 100 98 92 91 98 101 105 104 83 68 72 80 84 84 81 78 74 71 66 61 58 55 50 46 41 38 33 29 27 26 24
132 122 117 111 119 109 109 119 117 110 103 103 98 89 91 88 97 103 99 98 93 86 73 77 76 80 81 76 71 68 65 60 56 50 44 40 36 33 28 23 18 18 14
136 124 120 120 122 113 114 135 111 118 113 103 101 86 81 87 94 100 101 99 96 99 99 87 81 75 74 72 67 64 64 58 51 45 38 32 26 21 16 13 11 8 5
146 132 136 139 132 123 124 120 116 101 111 121 103 84 76 91 92 98 108 105 106 105 106 108 101 83 75 69 62 60 57 49 41 34 28 20 13 9 6 5 2 360 358
142 136 141 140 136 140 151 145 125 114 101 107 103 94 56 80 104 105 104 112 112 110 109 105 106 100 89 69 61 54 46 36 28 21 15 9 4 358 356 353 352 350 348
146 146 140 140 132 130 129 129 128 131 131 125 133 134 134 65 330 126 112 122 128 123 122 114 108 104 97 88 70 57 37 22 11 5 1 358 354 350 348 345 344 343 339
146 142 145 142 142 142 144 141 151 147 153 166 142 142 149 175 152 146 170 142 136 135 145 136 128 119 110 103 89 56 38 14 0 353 349 347 345 342 338 336 337 335 334
142 142 145 144 144 142 144 150 156 155 145 162 168 89 125 135 135 140 266 182 160 154 152 138 128 126 119 115 106 74 35 4 346 341 340 340 338 336 336 336 335 333 332
149 146 145 144 146 144 146 149 153 153 143 149 150 137 103 77 109 137 175 222 243 209 161 154 148 140 130 123 122 85 21 347 334 331 330 330 331 332 332 332 331 330 330
154 150 143 145 150 145 146 151 150 147 143 138 137 131 135 139 156 143 157 176 209 234 207 168 159 155 148 132 129 99 357 329 323 320 319 322 325 327 327 327 326 325 324
170 171 157 154 152 146 144 142 140 146 150 151 154 150 137 143 144 133 136 158 173 259 215 217 186 159 150 129 134 165 302 303 306 307 309 315 321 324 323 321 320 320 320
175 168 160 155 152 148 147 146 143 153 151 158 164 149 137 147 126 127 143 141 141 285 245 233 211 164 151 142 185 243 272 286 294 299 302 306 311 314 315 314 313 315 315
158 158 161 158 157 157 157 156 156 163 157 163 164 159 153 156 140 135 136 151 158 193 248 230 210 200 165 167 217 228 243 273 288 293 294 298 302 304 305 305 306 307 308
156 160 164 164 164 164 163 161 161 162 158 164 162 160 164 162 152 150 154 165 163 172 224 245 219 221 203 238 260 248 248 279 281 286 289 293 296 297 298 300 302 303 303
158 162 164 166 169 169 166 165 169 165 166 168 170 171 178 169 166 170 166 174 185 173 215 264 259 228 217 242 263 256 261 254 265 280 285 289 292 293 294 296 299 300 300
163 164 164 168 171 172 170 172 176 174 175 177 177 175 186 180 183 183 178 191 200 197 199 238 259 245 243 235 241 257 267 262 255 277 284 288 290 291 292 294 295 297 298
166 167 166 172 177 178 177 178 177 178 179 181 179 182 188 182 194 193 190 198 206 211 203 216 247 249 253 245 258 269 264 264 269 274 281 285 288 290 293 295 296 297 298
170 176 176 177 178 180 179 178 177 178 179 181 182 186 190 191 196 195 199 203 200 205 207 220 241 251 250 251 241 263 281 268 269 278 281 286 289 293 294 296 295 295 295
179 178 175 175 174 177 183 178 179 180 179 184 187 190 193 193 194 197 204 200 196 202 213 222 239 254 254 247 244 247 267 283 281 265 269 277 281 279 283 288 292 291 291
176 172 176 177 180 190 186 184 183 181 182 188 194 195 197 198 203 215 222 221 214 210 214 221 235 239 247 244 249 250 265 289 290 263 265 278 272 275 275 270 284 292 294
179 180 185 183 188 191 188 190 193 186 188 195 197 197 206 211 212 210 227 237 239 242 237 229 232 238 241 237 238 253 251 257 265 261 276 283 273 271 272 281 290 294 295
185 191 194 190 187 193 192 196 198 198 200 205 204 203 207 214 209 207 211 222 230 240 244 239 233 241 244 237 226 241 252 268 275 262 239 274 279 273 279 273 284 288 293
189 198 191 184 186 196 196 198 198 192 206 219 216 211 211 213 222 221 215 222 236 245 255 254 255 260 269 272 270 265 260 270 282 277 231 245 273 285 281 270 273 282 290
191 190 201 193 190 200 206 205 202 196 208 219 222 221 222 223 228 225 216 215 233 242 242 253 259 267 268 264 267 247 234 253 274 276 233 226 269 295 295 274 261 274 285